Location: Mat�lon
(46.2791°N, 7.1028°E)
Time: 11:14:25
(UTC+00:00)

CZ-2C R/B - Pass Details

Date: 18 September 2020
Orbit: 391 x 588 km, 35.0° (Epoch: 24 October)

Event Time Altitude Azimuth Distance (km) Brightness Sun altitude
Rises 18:58:54 0° 234° (SW) 2,440 5.2 -14.8°
Reaches altitude 10° 19:02:07 10° 204° (SSW) 1,522 3.6 -15.3°
Maximum altitude 19:03:38 12° 178° (S) 1,362 3.1 -15.6°
Enters shadow 19:03:49 12° 174° (S) 1,362 3.1 -15.6°
